Temperature
18 19 18 18 18 17 17 17 17 17 17 17 17 17 17 17 17 17 16 16 16 16 16 16 16 16 16 16 16 16 15 15 15 15 15 15 15 14 14 14 14 14 14
19 19 18 18 17 17 17 17 17 17 17 17 16 16 17 17 16 16 16 16 16 16 16 16 16 16 16 15 15 15 15 15 14 14 14 14 14 14 14 14 14 14 14
18 18 18 18 17 17 17 17 17 17 16 16 16 16 16 16 16 16 16 16 16 16 16 16 16 16 15 15 15 15 15 14 14 14 14 14 14 14 14 14 14 14 14
18 18 18 17 17 17 17 17 17 16 16 16 16 16 16 16 16 16 16 16 16 16 16 16 16 15 15 15 15 15 14 14 13 13 14 14 14 13 13 13 13 13 13
17 18 18 17 17 17 17 17 16 16 16 16 16 16 16 16 16 16 16 16 16 16 16 16 16 15 15 15 15 14 14 14 13 13 13 13 13 13 13 13 13 13 13
17 17 17 17 17 17 17 17 16 16 16 16 16 16 16 16 16 16 16 16 16 16 15 15 15 15 15 15 15 14 14 13 13 13 13 13 13 13 13 13 13 13 13
16 17 17 17 17 17 17 17 16 16 16 16 16 16 16 16 16 15 15 16 16 15 15 15 15 15 15 15 14 14 13 13 13 13 13 13 13 13 12 13 13 12 12
17 17 17 17 17 17 17 16 16 16 16 16 16 16 16 16 15 15 15 15 15 15 15 15 15 15 15 14 14 14 13 13 13 13 13 13 12 12 12 12 12 12 12
16 16 16 16 16 16 16 16 16 16 16 16 16 16 16 15 15 15 15 15 15 15 15 15 15 14 14 14 14 13 13 13 12 12 12 12 12 12 12 12 12 12 12
16 16 16 16 16 16 16 16 16 16 16 16 16 15 15 15 15 15 15 15 15 15 15 15 14 14 14 14 13 13 13 12 12 12 12 12 12 12 12 12 12 12 12
15 15 16 15 15 15 16 16 16 15 15 15 15 15 15 15 15 15 15 15 15 14 14 14 14 14 14 13 13 13 12 12 12 12 12 12 12 12 12 12 12 11 12
15 15 15 15 15 15 15 15 15 15 15 15 15 14 14 14 14 14 14 14 14 14 14 14 14 13 13 13 13 12 12 12 12 12 12 12 11 11 11 11 11 11 11
15 15 15 15 15 15 15 15 15 15 15 14 14 14 14 14 14 14 14 14 14 14 14 14 13 13 13 13 12 12 12 12 12 12 12 12 11 11 11 11 11 11 11
15 15 14 14 14 14 15 15 15 14 14 14 14 14 14 14 14 14 14 14 13 13 13 13 13 13 12 12 12 12 12 12 11 11 11 11 11 11 11 11 11 11 11
14 14 14 14 14 14 14 14 14 14 14 14 14 14 14 14 14 13 13 13 13 13 13 13 13 12 12 12 12 12 12 11 11 11 11 11 11 11 11 11 10 10 10
14 14 14 14 14 14 14 14 14 14 14 14 14 14 13 13 13 13 13 13 13 13 13 13 12 12 12 12 12 11 11 11 11 11 11 11 11 11 11 10 10 10 10
14 14 14 13 14 14 14 14 14 14 14 14 13 13 13 13 13 13 13 13 13 13 12 12 12 12 12 12 11 11 11 11 11 11 11 10 10 10 10 10 10 10 10
13 13 13 13 13 13 13 13 13 13 13 13 13 13 13 13 13 13 13 12 12 12 12 12 12 12 12 11 11 11 11 11 11 10 10 10 10 10 10 10 10 10 10
13 13 13 13 13 13 13 13 13 13 13 13 13 13 13 13 13 13 12 12 12 12 12 12 12 12 11 11 11 11 11 10 10 10 10 10 10 9 9 9 9 9 9
12 13 13 12 12 12 12 12 12 12 12 12 12 12 12 12 12 12 12 12 12 12 12 12 11 11 11 11 11 10 10 10 10 10 10 9 9 9 9 9 9 9 9
12 12 12 12 12 12 12 12 12 12 12 12 12 12 12 12 12 12 12 12 12 12 11 11 11 11 11 10 10 10 10 9 10 9 9 9 9 9 8 8 8 8 8
11 11 12 12 12 12 12 12 12 11 11 11 11 11 11 11 11 11 11 11 11 11 11 11 11 10 10 10 10 9 9 9 9 9 9 9 8 8 8 8 8 8 8
11 11 11 11 11 11 11 11 11 11 11 11 11 11 11 11 11 11 11 11 11 11 10 10 10 10 10 9 9 9 8 8 8 8 8 8 8 8 8 8 7 7 7
11 11 11 11 11 11 11 11 11 11 10 10 10 10 10 10 10 10 10 10 10 10 10 10 10 10 9 9 9 9 8 8 8 8 8 7 7 7 7 7 7 7 7
10 10 10 10 10 10 11 11 10 10 10 10 10 10 10 10 10 10 10 10 10 10 9 9 9 9 9 9 9 8 8 8 8 7 7 7 7 7 7 7 7 6 6
9 10 10 10 10 10 10 10 10 10 10 9 9 9 9 9 9 9 9 9 9 9 9 9 9 9 9 8 8 8 8 7 7 7 6 6 6 7 6 6 6 6 6
Wind_Speed
10 14 16 16 15 15 15 15 15 15 15 15 15 15 15 15 15 15 15 15 15 15 15 16 16 16 16 16 16 16 15 15 16 16 16 16 16 16 16 16 15 15 16
14 17 18 17 16 16 15 15 15 15 15 15 15 15 15 14 15 15 15 15 15 15 15 15 15 15 15 15 14 14 13 12 13 13 14 15 15 16 16 16 15 14 15
15 17 18 17 16 16 16 15 15 15 15 15 14 14 14 14 14 14 14 14 15 15 14 14 14 15 14 14 13 12 11 11 11 12 12 11 14 15 15 15 16 15 15
16 17 17 18 17 16 16 16 16 15 15 14 14 14 14 14 14 14 14 14 14 14 14 14 14 14 14 13 13 12 10 10 10 11 11 12 13 14 14 14 14 14 14
14 16 18 18 17 17 16 16 15 15 14 14 14 14 14 14 14 14 14 14 14 14 14 14 13 13 13 12 11 10 9 10 11 12 12 13 13 13 13 13 13 13 12
13 16 18 18 17 17 16 16 15 15 14 14 14 14 14 14 14 14 14 14 14 14 13 13 13 12 11 11 10 9 9 9 10 11 12 13 12 12 12 12 12 12 12
13 15 17 18 17 17 16 16 15 15 14 14 14 13 13 14 14 14 14 14 13 13 12 12 12 11 11 10 9 8 8 8 10 11 12 12 11 11 11 11 11 10 10
12 14 16 17 17 16 16 16 15 15 14 14 14 13 13 14 14 13 13 13 13 13 12 11 10 10 9 9 7 6 6 7 8 10 12 11 11 11 10 10 10 10 10
12 13 13 15 15 16 16 16 15 14 14 14 14 13 13 13 13 13 12 12 12 12 11 10 9 9 8 7 6 5 6 7 8 9 10 10 10 10 10 10 10 10 10
10 11 11 12 13 13 14 15 15 14 14 14 14 14 13 13 13 12 12 11 11 11 10 10 9 7 6 5 3 3 5 6 7 10 10 9 9 9 9 9 9 9 9
8 9 9 10 10 12 12 14 14 14 14 14 12 13 12 11 11 11 12 11 10 10 9 8 7 6 4 3 1 1 3 4 8 10 9 8 8 7 8 8 8 9 8
7 8 8 8 9 10 11 12 12 11 12 11 11 11 9 9 10 11 11 10 9 8 7 6 5 4 2 1 0 2 2 5 7 9 8 7 7 6 7 7 8 8 8
7 7 7 7 8 8 7 9 8 9 9 10 10 9 9 9 10 10 9 8 8 7 5 4 3 2 2 2 2 3 4 4 6 8 7 7 6 6 6 7 7 7 8
7 6 6 7 7 7 7 7 7 6 6 7 8 9 8 6 6 6 5 6 6 5 4 2 1 2 2 2 3 4 4 4 6 8 7 7 6 5 5 6 6 7 7
6 6 5 6 7 7 6 6 6 5 6 7 7 8 8 6 4 4 4 4 4 4 3 1 1 1 1 2 2 2 3 5 5 7 7 6 5 5 5 5 5 6 6
6 6 5 6 6 6 6 5 5 6 7 7 7 7 8 7 5 4 3 3 3 3 2 2 1 1 1 2 2 3 4 4 5 6 6 5 4 4 4 4 5 5 6
6 6 6 6 6 6 6 5 6 6 7 6 6 7 7 7 6 5 3 2 3 3 3 3 2 2 1 1 1 2 3 3 3 4 5 4 4 3 3 3 4 4 5
6 6 6 5 5 5 5 5 5 6 6 5 6 7 7 7 6 5 3 3 3 3 3 2 1 1 1 1 1 1 2 2 2 3 4 3 3 3 2 2 3 4 5
6 7 6 6 6 5 5 5 5 6 5 5 6 6 6 7 6 5 4 4 4 3 2 1 1 1 1 1 1 1 1 1 1 2 3 3 2 2 2 1 2 3 4
5 6 6 6 6 5 5 4 4 4 3 5 5 5 6 6 6 5 4 4 4 2 1 1 1 2 1 1 1 2 1 1 1 1 1 2 2 2 2 2 1 2 3
4 5 6 6 6 5 4 3 3 3 3 2 4 5 5 5 6 5 4 3 3 2 1 1 1 2 2 1 2 2 2 1 0 1 1 2 1 2 3 3 3 2 2
4 4 4 6 6 5 4 3 3 3 2 2 4 4 5 5 5 5 4 3 3 2 2 2 2 1 1 1 1 0 1 2 2 1 0 0 1 1 2 4 4 4 3
4 4 3 4 5 5 5 5 4 3 3 2 2 2 4 5 5 5 4 4 3 2 2 2 2 2 0 0 1 1 1 1 2 2 1 1 1 1 1 2 3 4 4
3 3 3 3 4 5 6 6 6 4 3 3 3 3 4 5 5 5 4 4 3 3 2 1 2 1 1 0 1 1 0 1 0 2 2 2 2 2 2 2 3 4 4
2 3 3 3 3 4 5 7 6 5 3 3 4 4 4 3 5 5 5 5 3 3 2 2 1 2 1 0 0 1 1 1 1 1 3 3 2 2 2 2 2 2 4
3 2 2 3 2 2 4 6 6 7 6 6 5 5 4 3 3 4 5 5 4 3 2 2 2 1 1 1 1 1 0 0 1 1 2 3 3 3 3 2 1 2 4
Wind_Direction
126 131 135 132 131 128 126 125 122 119 116 113 111 107 105 103 103 102 100 98 96 93 91 88 85 83 80 78 78 77 77 76 76 74 72 70 68 65 64 63 63 63 63
129 133 134 132 131 130 128 125 123 121 118 115 112 110 108 106 105 105 104 101 98 95 92 89 86 84 82 79 78 77 77 77 77 76 74 71 70 67 65 63 64 66 63
128 133 135 133 132 131 129 126 124 122 119 116 113 111 110 109 106 105 103 100 97 94 92 89 87 86 83 80 78 77 75 73 71 71 72 73 72 69 66 64 64 63 60
128 134 137 135 133 132 130 128 126 123 120 118 114 111 111 109 107 103 101 99 97 96 94 91 90 87 85 82 79 76 72 63 60 62 66 71 72 71 68 64 62 61 59
127 132 135 135 133 132 131 128 126 123 121 118 115 113 111 108 106 103 100 98 98 96 96 94 92 89 86 84 79 73 65 59 55 64 68 69 69 71 69 65 61 57 55
125 126 134 136 135 134 132 130 128 126 123 120 118 115 112 110 106 103 101 99 99 98 97 96 94 91 87 83 78 69 58 55 60 66 69 69 68 68 66 63 60 55 52
128 126 135 138 138 136 135 133 131 129 126 125 123 120 116 112 108 105 102 100 100 100 100 98 95 92 87 82 76 64 51 49 69 71 70 68 67 67 63 60 55 52 48
125 126 134 137 137 138 137 135 134 132 130 128 125 123 119 115 111 108 105 103 101 100 100 98 95 93 88 82 73 56 37 41 66 75 73 68 68 66 60 56 52 49 45
124 128 134 136 136 137 138 137 135 133 132 130 128 124 120 118 116 112 109 107 105 102 99 96 96 95 92 86 73 46 34 35 55 71 74 66 67 66 60 53 49 46 41
123 130 135 138 139 138 137 137 136 133 132 131 128 125 123 123 121 117 112 109 108 105 102 99 96 95 97 94 72 31 21 31 63 75 73 67 66 64 56 49 42 41 38
124 130 136 141 140 139 139 137 135 134 133 130 131 133 132 131 127 118 114 113 112 109 107 104 101 98 103 104 70 2 8 47 75 77 74 71 65 59 53 46 40 37 35
132 135 140 141 140 139 141 138 139 140 142 142 143 145 142 129 122 119 119 119 118 117 117 118 120 121 116 118 354 322 37 63 78 86 78 75 66 56 49 45 39 36 35
144 137 142 141 137 136 132 136 137 141 146 145 149 147 131 120 119 119 121 123 127 129 128 138 154 156 108 78 33 27 52 65 77 87 83 77 67 60 51 41 35 36 39
139 136 137 136 135 133 128 127 131 132 132 132 138 132 122 113 114 121 125 135 137 136 135 137 138 107 93 73 52 41 37 59 84 93 87 84 74 61 49 40 39 34 34
133 135 138 133 134 130 125 129 129 124 124 129 126 129 125 118 120 116 117 119 118 118 127 131 91 79 67 62 49 45 47 60 75 93 95 88 80 65 48 42 36 30 24
135 134 130 128 130 129 129 130 121 116 122 124 126 127 125 123 122 115 106 105 106 109 109 92 89 82 64 68 43 41 49 60 75 88 100 94 90 77 52 33 22 17 14
141 133 129 132 128 128 127 127 121 114 118 119 122 126 127 126 122 119 114 105 97 107 99 81 57 58 54 61 50 49 46 56 69 85 89 87 85 80 62 32 13 4 3
140 136 134 134 129 129 123 119 116 116 114 115 121 123 127 128 125 118 115 113 103 100 88 86 79 70 43 37 30 35 51 56 68 86 82 81 85 72 55 25 2 354 352
143 140 138 131 130 131 127 120 117 113 109 114 118 124 129 129 127 120 111 107 105 84 73 90 81 81 63 37 24 24 31 33 77 88 89 80 71 65 48 17 342 336 343
142 135 139 133 129 126 123 117 115 107 104 106 111 114 120 123 123 116 105 102 103 94 83 92 107 82 78 55 22 14 344 310 103 126 123 91 61 23 6 352 354 326 322
140 138 144 138 135 128 126 133 134 137 130 115 109 114 116 117 118 111 102 100 93 100 115 113 104 98 68 55 44 355 322 302 282 151 104 87 50 13 0 353 355 342 324
139 139 146 146 145 139 139 139 134 133 134 124 110 110 114 114 114 114 105 104 99 96 84 66 82 80 68 75 88 51 323 319 324 314 6 64 354 14 6 347 342 343 347
153 152 154 154 151 147 136 125 116 108 109 110 125 132 111 112 111 109 104 97 93 98 105 76 71 72 120 338 69 113 148 257 307 281 267 279 313 335 335 324 329 330 330
153 144 151 162 155 150 147 147 148 149 157 167 154 137 118 115 115 113 110 104 105 105 119 111 81 71 100 204 341 23 178 186 203 291 289 280 298 293 298 321 324 317 314
111 123 136 152 155 160 159 156 155 154 147 140 134 131 126 111 110 115 117 113 115 111 114 104 87 83 76 68 316 296 290 309 295 235 275 290 297 280 278 291 292 301 316
109 111 130 131 140 164 165 161 158 154 150 146 147 145 139 131 115 115 118 114 113 110 114 117 110 108 97 71 27 10 359 284 282 270 271 290 290 281 276 264 271 319 335
Height
1516 1517 1520 1522 1524 1526 1528 1530 1531 1533 1534 1536 1537 1538 1539 1540 1541 1542 1543 1543 1544 1545 1545 1545 1546 1546 1546 1546 1546 1546 1546 1546 1546 1546 1546 1546 1545 1545 1545 1544 1544 1544 1544
1514 1517 1520 1522 1524 1527 1529 1531 1532 1534 1535 1537 1538 1539 1540 1542 1542 1543 1544 1545 1545 1546 1546 1547 1547 1547 1547 1547 1547 1548 1548 1548 1547 1547 1547 1547 1547 1547 1546 1546 1546 1545 1545
1514 1517 1520 1523 1525 1527 1529 1531 1533 1535 1537 1538 1539 1540 1542 1543 1544 1545 1545 1546 1547 1547 1548 1548 1548 1549 1549 1549 1549 1549 1549 1549 1549 1549 1548 1548 1548 1548 1548 1547 1547 1546 1546
1514 1517 1520 1523 1525 1528 1530 1532 1534 1536 1537 1539 1540 1541 1543 1544 1545 1546 1546 1547 1548 1548 1549 1549 1549 1550 1550 1550 1550 1550 1550 1550 1550 1550 1549 1549 1549 1549 1549 1548 1548 1547 1547
1515 1517 1520 1523 1526 1528 1530 1533 1535 1536 1538 1540 1541 1542 1543 1545 1546 1547 1547 1548 1549 1549 1550 1550 1550 1551 1551 1551 1551 1551 1552 1552 1551 1551 1551 1550 1550 1550 1549 1549 1549 1548 1547
1516 1518 1520 1523 1526 1529 1531 1533 1535 1537 1539 1540 1542 1543 1544 1545 1547 1547 1548 1549 1550 1550 1551 1551 1551 1551 1552 1552 1552 1552 1552 1552 1552 1552 1551 1551 1551 1551 1550 1550 1549 1549 1548
1516 1518 1521 1524 1526 1529 1531 1533 1535 1537 1539 1541 1542 1544 1545 1546 1547 1548 1549 1550 1550 1551 1551 1552 1552 1552 1553 1553 1553 1553 1553 1553 1553 1553 1552 1552 1552 1551 1551 1550 1550 1549 1548
1516 1518 1521 1524 1526 1529 1531 1533 1535 1537 1539 1541 1542 1544 1545 1547 1548 1549 1550 1550 1551 1552 1552 1553 1553 1553 1553 1553 1554 1554 1554 1554 1554 1553 1553 1553 1553 1552 1551 1551 1550 1549 1548
1516 1518 1521 1524 1526 1529 1531 1533 1535 1537 1539 1541 1543 1544 1546 1547 1548 1549 1550 1551 1552 1552 1553 1553 1554 1554 1554 1554 1554 1555 1555 1555 1554 1554 1553 1553 1553 1552 1552 1551 1550 1549 1548
1517 1518 1521 1523 1526 1528 1531 1533 1535 1537 1540 1541 1543 1545 1546 1547 1549 1550 1550 1551 1552 1553 1553 1554 1554 1555 1555 1555 1555 1555 1555 1555 1555 1554 1554 1553 1553 1552 1552 1551 1550 1549 1548
1516 1518 1520 1523 1525 1528 1530 1533 1535 1537 1539 1541 1543 1545 1546 1547 1549 1550 1550 1551 1552 1553 1553 1554 1554 1555 1555 1555 1556 1556 1556 1555 1555 1554 1554 1553 1553 1552 1552 1551 1550 1549 1548
1515 1518 1520 1522 1525 1527 1529 1532 1534 1537 1539 1541 1543 1545 1546 1547 1548 1549 1550 1551 1552 1553 1553 1554 1554 1555 1555 1555 1556 1556 1555 1555 1555 1554 1554 1553 1553 1552 1551 1550 1550 1549 1548
1514 1517 1520 1522 1524 1526 1528 1531 1533 1536 1538 1540 1542 1544 1546 1547 1548 1549 1550 1551 1551 1552 1553 1553 1554 1554 1555 1555 1555 1555 1555 1555 1555 1554 1553 1553 1552 1552 1551 1550 1549 1548 1547
1513 1516 1518 1521 1523 1525 1527 1530 1532 1535 1537 1539 1541 1543 1545 1546 1547 1548 1549 1550 1551 1551 1552 1553 1553 1554 1554 1554 1555 1555 1554 1554 1554 1553 1553 1552 1552 1551 1550 1549 1548 1547 1546
1512 1514 1517 1520 1522 1524 1526 1529 1531 1534 1536 1538 1540 1542 1543 1545 1546 1547 1549 1549 1550 1551 1552 1552 1552 1553 1553 1553 1554 1553 1553 1553 1553 1552 1551 1551 1551 1550 1549 1548 1547 1546 1545
1510 1513 1515 1518 1520 1523 1525 1527 1530 1532 1534 1537 1538 1540 1542 1544 1545 1546 1547 1548 1549 1550 1551 1551 1552 1552 1552 1552 1552 1552 1552 1551 1551 1551 1550 1550 1549 1548 1547 1546 1546 1544 1543
1509 1511 1514 1516 1519 1521 1524 1526 1529 1531 1533 1535 1537 1539 1541 1542 1544 1545 1546 1547 1548 1549 1550 1550 1550 1551 1551 1551 1550 1550 1550 1550 1549 1549 1549 1548 1548 1547 1546 1545 1544 1543 1542
1507 1510 1512 1514 1517 1520 1522 1525 1527 1529 1531 1534 1536 1537 1539 1541 1542 1543 1544 1545 1546 1547 1548 1549 1549 1549 1549 1549 1549 1549 1548 1548 1548 1547 1547 1547 1546 1545 1544 1543 1542 1541 1540
1506 1508 1511 1513 1515 1518 1520 1523 1525 1527 1530 1532 1533 1535 1537 1539 1540 1542 1543 1544 1545 1545 1546 1547 1547 1547 1547 1547 1547 1546 1546 1546 1546 1545 1545 1545 1544 1543 1542 1541 1540 1539 1538
1505 1507 1509 1511 1514 1516 1518 1521 1523 1525 1528 1529 1531 1533 1535 1537 1538 1540 1541 1542 1543 1544 1544 1545 1545 1545 1546 1545 1545 1544 1544 1544 1543 1543 1543 1543 1542 1541 1540 1539 1538 1536 1535
1502 1505 1507 1509 1511 1514 1516 1518 1520 1522 1525 1527 1529 1531 1533 1535 1536 1538 1539 1540 1541 1542 1542 1543 1543 1543 1543 1543 1543 1542 1542 1542 1541 1541 1541 1540 1539 1539 1538 1537 1535 1534 1532
1500 1502 1505 1507 1509 1511 1514 1516 1518 1520 1523 1525 1527 1529 1531 1532 1534 1535 1537 1538 1539 1540 1540 1541 1541 1541 1541 1541 1541 1540 1540 1540 1539 1539 1538 1538 1537 1536 1535 1534 1533 1531 1530
1498 1500 1502 1505 1507 1509 1512 1514 1516 1518 1520 1522 1524 1526 1528 1530 1532 1533 1535 1536 1536 1537 1538 1538 1539 1539 1539 1539 1539 1540 1539 1538 1536 1536 1536 1535 1534 1533 1533 1531 1530 1528 1527
1496 1498 1500 1503 1504 1507 1509 1511 1513 1515 1517 1519 1522 1524 1526 1527 1529 1531 1532 1533 1534 1535 1536 1536 1536 1536 1536 1536 1537 1537 1538 1537 1536 1533 1533 1532 1531 1530 1530 1528 1527 1525 1524
1493 1495 1498 1500 1502 1504 1506 1509 1511 1513 1515 1517 1519 1522 1524 1525 1527 1528 1530 1531 1532 1532 1533 1533 1534 1534 1534 1534 1534 1534 1534 1534 1533 1532 1529 1529 1528 1527 1526 1525 1524 1522 1521
1491 1493 1495 1497 1499 1501 1503 1506 1508 1510 1512 1514 1517 1519 1521 1523 1524 1526 1527 1528 1529 1530 1530 1531 1531 1531 1531 1531 1531 1531 1531 1531 1530 1529 1527 1525 1524 1524 1523 1522 1521 1519 1518